{"data":{"norad_id":82381,"intl_designator":"","name":"UNKNOWN","alt_names":[],"object_type":"UNKNOWN","status":"UNKNOWN","operator":null,"country":null,"launch_date":null,"launch_site_code":null,"launch_vehicle":null,"mission":null,"orbit_class":"UNKNOWN","rcs_meters":null,"size_class":null,"mass_kg":null,"dimensions":null,"purposes":[],"wikipedia_slug":null,"has_3d_model":false,"image_url":null,"decayed_at":null,"tle_current":{"epoch":"2026-05-23T02:50:54.536928Z","epoch_age_seconds":237612,"freshness":"STALE","line1":"1 82381U          26143.11868677  .00017710  00000+0  18834-2 0  9993","line2":"2 82381  98.3854  21.4646 0008074 358.9341   1.1856 14.89011227534767","mean_motion":14.89011227,"eccentricity":0.0008074,"inclination_deg":98.3854,"raan_deg":21.4646,"arg_perigee_deg":358.9341,"mean_anomaly_deg":1.1856,"bstar":0.0018834,"rev_number":53476,"period_min":96.708471627931,"perigee_km":595.38864134097,"apogee_km":606.65858990307,"semimajor_km":6979.160615622,"source":"CELESTRAK","updated_at":"2026-05-25T13:38:11.188025Z"}}}